Location: Cedar Springs
(43.2230°N, 85.5510°W)
Time: 10:24:28
(UTC-04:00)

Cosmos 2278 Rocket - Visible Passes

Search period start: 23 October 2014 00:00
Search period end: 02 November 2014 00:00
Orbit: 842 x 845 km, 71.0° (Epoch: 22 October)

Date Brightness Start Highest point End Pass type
(mag) Time Alt. Az. Time Alt. Az. Time Alt. Az.
23 Oct 3.0 19:17:46 10° N 19:22:46 31° NE 19:27:45 10° ESE visible
23 Oct 3.3 21:01:41 10° NW 21:06:58 42° WSW 21:12:13 10° S visible
24 Oct 3.0 19:03:20 10° N 19:08:17 30° NE 19:13:12 10° ESE visible
24 Oct 3.3 20:47:11 10° NW 20:52:31 44° WSW 20:57:48 10° S visible
25 Oct 3.2 20:32:41 10° NW 20:38:03 46° WSW 20:43:23 10° S visible
26 Oct 3.2 20:18:12 10° NW 20:23:36 48° WSW 20:28:58 10° S visible
27 Oct 3.2 20:03:42 10° NW 20:09:08 50° WSW 20:14:33 10° S visible
28 Oct 3.1 19:49:13 10° NW 19:54:41 52° WSW 20:00:07 10° S visible
29 Oct 3.1 19:34:43 10° NNW 19:40:13 54° WSW 19:45:41 10° S visible
30 Oct 3.0 19:20:14 10° NNW 19:25:46 56° WSW 19:31:15 10° S visible
31 Oct 3.0 19:05:45 10° NNW 19:11:18 59° WSW 19:16:49 10° S visible
